DW8761 Weather Reports


Display with metric or nautical units.
time (UTC)temp
F
wind
direction
speed
MPH
gust
MPH
rain 1hr
in
rain 24hr
in
rain mn
in
humidity
%
barometer
mb
20180922024735 62 155 5.0 10.0 0.00 0.00 0.00 86 1014.7
20180922023224 62 172 3.0 10.0 0.00 0.00 0.00 86 1014.8
20180922021708 62 162 3.0 8.0 0.00 0.00 0.00 85 1014.9
20180922020157 62 178 1.0 8.0 0.00 0.00 0.00 84 1014.9
20180922014643 63 205 2.0 8.0 0.00 0.00 0.00 83 1015.0
20180922013149 63 184 5.0 9.0 0.00 0.00 0.00 82 1014.9
20180922011620 64 170 5.0 12.0 0.00 0.00 0.00 81 1015.0
20180922010141 64 199 4.0 11.0 0.00 0.00 0.00 81 1015.1
20180922004546 64 209 1.0 4.0 0.00 0.00 0.00 80 1015.1
20180922003013 64 277 0.0 9.0 0.00 0.00 0.00 78 1015.1
20180922001437 66 223 1.0 4.0 0.00 0.00 0.00 76 1014.8
20180921235918 66 266 1.0 3.0 0.00 0.00 0.00 75 1014.8
20180921234402 66 188 0.0 6.0 0.00 0.00 0.00 76 1015.0
20180921232826 66 257 1.0 7.0 0.00 0.00 0.00 75 1015.4
20180921231313 65 193 1.0 6.0 0.00 0.00 0.00 77 1015.4
20180921225755 64 303 0.0 5.0 0.00 0.00 0.00 79 1015.4
20180921224240 64 242 1.0 4.0 0.00 0.00 0.00 81 1015.4
20180921222723 63 273 1.0 8.0 0.00 0.00 0.00 81 1015.5
20180921221208 63 269 1.0 8.0 0.00 0.00 0.00 82 1015.5
20180921215656 62 267 2.0 7.0 0.00 0.00 0.00 82 1015.4
20180921214143 62 285 4.0 10.0 0.00 0.00 0.00 81 1015.5
20180921212604 63 282 3.0 9.0 0.00 0.00 0.00 82 1015.4
20180921211052 63 283 2.0 7.0 0.00 0.00 0.00 80 1015.4
20180921205518 63 288 3.0 9.0 0.00 0.00 0.00 77 1015.5
20180921203958 64 171 2.0 7.0 0.00 0.00 0.00 78 1015.3
20180921202442 62 267 2.0 7.0 0.00 0.00 0.00 77 1015.7
20180921200932 63 286 2.0 7.0 0.00 0.00 0.00 75 1015.6
20180921193804 64 248 4.0 7.0 0.00 0.00 0.00 73 1015.6
20180921192251 63 293 4.0 5.0 0.00 0.00 0.00 72 1015.7
20180921190727 63 302 2.0 4.0 0.00 0.00 0.00 74 1015.7
20180921185154 62 301 1.0 5.0 0.00 0.00 0.00 76 1016.0
20180921183635 62 301 0.0 4.0 0.00 0.00 0.00 78 1016.2
20180921182109 63 298 1.0 5.0 0.00 0.00 0.00 78 1016.3
20180921180553 64 280 3.0 6.0 0.00 0.00 0.00 78 1016.3
20180921175016 63 156 1.0 5.0 0.00 0.00 0.00 83 1016.3
20180921173458 62 155 2.0 5.0 0.00 0.00 0.00 86 1016.3
20180921171940 60 128 1.0 4.0 0.00 0.00 0.00 89 1016.2
20180921170424 58 181 3.0 7.0 0.00 0.00 0.00 91 1016.4
20180921164907 57 144 2.0 5.0 0.00 0.00 0.00 94 1016.5
20180921163349 55 98 1.0 4.0 0.00 0.00 0.00 95 1016.6
20180921161827 54 165 1.0 5.0 0.00 0.00 0.00 95 1016.6
20180921160319 53 165 2.0 7.0 0.00 0.00 0.00 96 1016.8
20180921154742 52 107 3.0 6.0 0.00 0.00 0.00 96 1016.9
20180921153225 51 159 3.0 5.0 0.00 0.00 0.00 96 1016.9
20180921151708 51 166 2.0 5.0 0.00 0.00 0.00 96 1017.2
20180921150155 50 165 0.0 0.0 0.00 0.00 0.00 96 1017.3
20180921144639 50 165 0.0 3.0 0.00 0.00 0.00 96 1017.3
20180921143116 49 165 2.0 5.0 0.00 0.00 0.00 96 1017.1
20180921141616 49 147 1.0 5.0 0.00 0.00 0.00 96 1016.9
20180921140049 49 180 2.0 8.0 0.00 0.00 0.00 96 1016.9
20180921134550 49 138 2.0 8.0 0.00 0.00 0.00 96 1016.7
20180921133030 49 171 2.0 7.0 0.00 0.00 0.00 96 1016.7
20180921131446 49 159 3.0 8.0 0.00 0.00 0.00 96 1016.9
20180921125930 49 167 3.0 6.0 0.00 0.00 0.00 95 1016.9
20180921124417 49 174 3.0 6.0 0.00 0.00 0.00 95 1017.1
20180921122910 49 158 1.0 3.0 0.00 0.00 0.00 95 1017.2
20180921121356 49 158 1.0 3.0 0.00 0.00 0.00 95 1017.3
20180921115839 49 166 2.0 3.0 0.00 0.00 0.00 95 1017.4
20180921114322 49 165 1.0 3.0 0.00 0.00 0.00 95 1017.3
20180921112805 49 165 0.0 3.0 0.00 0.00 0.00 95 1017.4
20180921111247 49 165 1.0 3.0 0.00 0.00 0.00 95 1017.5
20180921105728 50 170 2.0 4.0 0.00 0.00 0.00 94 1017.5
20180921104218 50 171 2.0 4.0 0.00 0.00 0.00 95 1017.6
20180921102708 50 157 4.0 6.0 0.00 0.00 0.00 94 1017.6
20180921101154 51 159 2.0 6.0 0.00 0.00 0.00 95 1017.7
20180921095635 50 181 3.0 8.0 0.00 0.00 0.00 95 1017.7
20180921094120 50 161 2.0 5.0 0.00 0.00 0.00 94 1017.9
20180921092609 50 149 2.0 5.0 0.00 0.00 0.00 94 1018.1
20180921091058 51 146 2.0 5.0 0.00 0.00 0.00 94 1018.2
20180921085542 51 153 2.0 7.0 0.00 0.00 0.00 94 1018.2
20180921084008 51 156 2.0 6.0 0.00 0.00 0.00 95 1018.1
20180921082451 50 156 3.0 7.0 0.00 0.00 0.00 95 1018.2
20180921080941 50 142 3.0 6.0 0.00 0.00 0.00 95 1018.4
20180921075422 49 146 2.0 5.0 0.00 0.00 0.00 95 1018.5
20180921073905 49 60 0.0 0.0 0.00 0.00 0.00 94 1018.7
20180921072353 49 60 0.0 0.0 0.00 0.00 0.00 94 1019.0
20180921070837 49 60 0.0 0.0 0.00 0.00 0.00 94 1019.1
20180921065300 49 60 0.0 0.0 0.00 0.00 0.00 93 1019.1
20180921063749 49 60 0.0 2.0 0.00 0.00 0.00 93 1019.0
20180921062218 49 60 1.0 2.0 0.00 0.00 0.00 93 1019.2
20180921060706 50 60 0.0 0.0 0.00 0.00 0.00 93 1019.3
20180921055150 50 60 0.0 0.0 0.00 0.00 0.00 92 1019.5
20180921053629 50 60 0.0 0.0 0.00 0.00 0.00 92 1019.6
20180921052113 51 60 0.0 0.0 0.00 0.00 0.00 92 1019.7
20180921050602 51 60 0.0 0.0 0.00 0.00 0.00 91 1019.8
20180921045036 52 60 0.0 0.0 0.00 0.00 0.00 91 1020.0
20180921043501 53 60 0.0 0.0 0.00 0.00 0.00 91 1019.9
20180921041946 53 60 0.0 0.0 0.00 0.00 0.00 91 1019.8
20180921040434 54 60 0.0 0.0 0.00 0.00 0.00 90 1020.0
20180921034917 55 60 0.0 0.0 0.00 0.00 0.00 90 1020.0
20180921033404 55 60 0.0 0.0 0.00 0.00 0.00 90 1019.9
20180921031856 56 60 0.0 0.0 0.00 0.00 0.00 89 1019.9
20180921030226 57 60 0.0 2.0 0.00 0.00 0.00 89 1019.8